Location: Calvatone
(45.1167°N, 10.4333°E)
Time: 10:25:44
(UTC+00:00)

Cosmos 2278 - Pass Details

Date: 28 January 2023
Orbit: 838 x 853 km, 71.1° (Epoch: 28 March)

Event Time Altitude Azimuth Distance (km) Brightness Sun altitude
Rises 17:39:02 0° 192° (SSW) 3,380 7.2 -14.1°
Reaches altitude 10° 17:41:29 10° 189° (S) 2,452 6.4 -14.5°
Maximum altitude 17:47:00 60° 111° (ESE) 961 3.7 -15.5°
Enters shadow 17:52:04 13° 33° (NNE) 2,284 5.6 -16.3°
